AO-07 1 07530U 74089B 15281.49991398 -.00000018 00000-0 16057-3 0 9994 2 07530 101.5363 253.8131 0012401 81.9997 66.2749 12.53616988871458 FO-29 1 24278U 96046B 15281.87367755 .00000011 00000-0 44516-4 0 9999 2 24278 98.5562 235.3688 0351131 136.0078 251.0579 13.53057284945403 SO-33 1 25509U 98061B 15281.52137550 .00000280 00000-0 43250-4 0 9998 2 25509 31.4336 328.8569 0347713 347.0861 12.1043 14.30075101885653 RS-22 1 27939U 03042A 15281.84764472 .00000452 00000-0 90439-4 0 9998 2 27939 97.8555 78.7854 0013849 30.9112 329.2911 14.66168778642846 HO-68 1 36122U 09072B 15281.71992052 -.00000059 00000-0 -43517-4 0 9994 2 36122 100.1824 322.4140 0007191 214.8430 145.2210 13.16329651279390 AO-73 1 39444U 13066AE 15281.64793451 .00001126 00000-0 14914-3 0 9998 2 39444 97.7187 340.1893 0060835 125.0500 235.6441 14.80505589100201 EO-79 1 40025U 14033R 15281.78079433 .00001041 00000-0 12110-3 0 9994 2 40025 97.9407 182.1504 0012958 165.8161 194.3421 14.87409724 70673 XW-2A 1 40903U 15049E 15281.76891009 .00003211 00000-0 16648-3 0 9997 2 40903 97.4573 289.6074 0024076 231.8056 232.0991 15.16639571 2858 XW-2C 1 40906U 15049H 15281.81921501 .00002066 00000-0 12305-3 0 9990 2 40906 97.4560 289.5504 0015673 182.7039 301.5895 15.12211340 2842 LILACSAT-2 1 40908U 15049K 15281.82552463 .00001462 00000-0 89435-4 0 9998 2 40908 97.4637 289.5582 0016802 175.4076 308.4178 15.11681768 2844 XW-2E 1 40909U 15049L 15281.88131054 .00003463 00000-0 20222-3 0 9995 2 40909 97.4568 289.6187 0014748 185.6543 293.7671 15.12490212 2857 UO-11 1 14781U 84021B 15280.88735859 .00000453 00000-0 62840-4 0 9991 2 14781 097.7887 335.1208 0009904 067.3377 292.8883 14.82524928677720 AO-16 1 20439U 90005D 15280.87293664 .00000071 00000-0 42242-4 0 9999 2 20439 98.5473 215.4472 0010642 181.7952 255.5346 14.32573627342871 LO-19 1 20442U 90005G 15280.84865849 .00000052 00000-0 34944-4 0 9999 2 20442 098.5180 214.6382 0011846 169.7758 190.3670 14.32763673343013 AO-27 1 22825U 93061C 15280.93075147 .00000049 00000-0 36636-4 0 9991 2 22825 098.7214 231.1375 0008179 346.6090 054.2653 14.29907022148775 IO-26 1 22826U 93061D 15280.95432120 .00000063 00000-0 41651-4 0 9991 2 22826 098.7157 231.3146 0008542 337.5034 022.5772 14.30226414148952 GO-32 1 25397U 98043D 15281.12668095 .00000018 00000-0 26439-4 0 9991 2 25397 98.5322 228.0926 0001787 40.1026 26.6236 14.23562601895863 NO-44 1 26931U 01043C 15281.21945877 .00000036 00000-0 45711-4 0 9990 2 26931 67.0506 245.5146 0006400 276.6907 83.3466 14.30347211731963 SO-50 1 27607U 02058C 15281.82017120 .00000359 00000-0 71543-4 0 9996 2 27607 64.5552 211.7872 0083092 266.5978 92.5617 14.74869160688046 CO-55 1 27844U 03031E 15281.48109308 .00000152 00000-0 88631-4 0 9990 2 27844 98.6965 288.3993 0009287 340.0820 19.9994 14.21853127636533 CO-57 1 27848U 03031J 15281.83490919 .00000125 00000-0 77038-4 0 9993 2 27848 98.7063 288.7142 0009331 347.0111 136.6098 14.21493289636493 AO-51 1 28375U 04025K 15280.88315398 .00000131 00000-0 51896-4 0 9995 2 28375 098.3008 218.1344 0082599 350.1404 009.8162 14.41702236592662 CP3 1 31129U 07012N 15281.20009675 .00000694 00000-0 15880-3 0 9996 2 31129 97.9949 242.1501 0095665 322.3840 165.1021 14.55974492449567 CO-65 1 32785U 08021C 15280.89132082 .00000875 00000-0 10313-3 0 9996 2 32785 97.6373 320.2435 0014635 58.4068 355.3128 14.87097887402980 PRISM 1 33493U 09002B 15281.85165298 .00003072 00000-0 29506-3 0 9991 2 33493 98.2423 124.7992 0015249 320.6768 39.3348 14.93790866363543 SOHLA-1 1 33496U 09002E 15281.46203587 .00000245 00000-0 47792-4 0 9992 2 33496 98.2278 50.4132 0006826 154.2739 247.5777 14.71437631359835 TISAT-1 1 36799U 10035E 15281.75122950 .00001687 00000-0 18565-3 0 9991 2 36799 98.0206 23.5059 0012729 189.2198 324.8840 14.88910499283852 STUDSAT 1 36801U 10035G 15281.80960592 .00016559 00000-0 87778-3 0 9999 2 36801 98.0722 47.9170 0006357 114.2981 245.8914 15.15451467285167 ALMASAT-1 1 38078U 12006B 15281.81347582 .00033357 33696-5 55447-3 0 9991 2 38078 69.4494 312.6953 0449374 99.4858 265.7376 14.85476376191870 CUBEBUG-1 1 39153U 13018D 15281.78505855 .00000796 00000-0 11365-3 0 9995 2 39153 98.0130 5.8109 0016052 244.0915 115.8642 14.79433932132273 ESTCUBE-1 1 39161U 13021C 15281.84603693 .00000366 00000-0 67337-4 0 9998 2 39161 98.0660 3.7590 0008616 318.6669 41.3867 14.71324356129956 DUCHIFAT-1 1 40021U 14033M 15281.66676476 .00001605 00000-0 17892-3 0 9995 2 40021 97.9429 182.5680 0013524 166.0547 194.1046 14.88415253 70680 NANOSATCBR1 1 40024U 14033Q 15281.69061269 .00001390 00000-0 15761-3 0 9993 2 40024 97.9408 182.2756 0012796 165.2160 194.9432 14.87948837 70677 DTUSAT-2 1 40030U 14033W 15281.83466416 .00001075 00000-0 12606-3 0 9994 2 40030 97.9393 181.8590 0012577 158.8201 201.3537 14.87037667 70667 ANTELSAT 1 40034U 14033AA 15281.76951377 .00000426 00000-0 72387-4 0 9997 2 40034 97.9279 171.2372 0060995 115.2161 245.5380 14.72920705 70017 MET-2/21 1 22782U 93055A 15281.17773144 -.00000003 00000-0 -16449-4 0 9997 2 22782 82.5496 154.0223 0022679 7.2222 108.7436 13.83777045116221 OKEAN-4 1 23317U 94066A 15280.96828856 .00000593 00000-0 63555-4 0 9994 2 23317 082.5394 339.4824 0018927 319.3072 167.4023 14.86844303134062 NOAA-14 1 23455U 94089A 15281.48266329 -.00000007 00000-0 18778-4 0 9999 2 23455 98.7460 0.5694 0010476 115.3039 313.1253 14.14054256 71546 NOAA-15 1 25338U 98030A 15281.43212632 .00000072 00000-0 49370-4 0 9997 2 25338 98.7782 280.1760 0010254 194.1878 165.9015 14.25665587904973 RESURS 1 25394U 98043A 15281.85563405 -.00000026 00000-0 68390-5 0 9990 2 25394 98.4789 232.9089 0000913 2.9797 22.4476 14.24457794896465 FENGYUN1 1 25730U 99025A 15281.50435921 .00000484 00000-0 27964-3 0 9995 2 25730 98.9520 246.3894 0019196 178.4341 258.8342 14.13650465845062 OKEAN-0 1 25860U 99039A 15281.04384860 .00000340 00000-0 56803-4 0 9994 2 25860 98.1090 249.3729 0001203 66.1032 335.8868 14.76149909872637 NOAA-16 1 26536U 00055A 15281.45451576 .00000003 00000-0 25774-4 0 9998 2 26536 98.9313 347.2605 0009489 272.3322 87.6763 14.13110434775654 NOAA-17 1 27453U 02032A 15281.48556268 .00000023 00000-0 27267-4 0 9992 2 27453 98.3523 261.9382 0011018 205.5163 154.5474 14.24901657690797 NOAA-18 1 28654U 05018A 15281.49217677 .00000074 00000-0 65584-4 0 9992 2 28654 99.1919 276.9425 0014464 7.2412 352.8965 14.12237733535065 NOAA-19 1 33591U 09005A 15281.47551930 .00000115 00000-0 87440-4 0 9990 2 33591 99.0024 231.6915 0013373 207.5884 152.4579 14.11985352343478 HUBBLE 1 20580U 90037B 15281.83723127 .00001314 00000-0 72535-4 0 9999 2 20580 28.4692 124.5075 0003016 20.6908 56.2963 15.07746498196971 ISS 1 25544U 98067A 15281.90734378 .00007400 00000-0 11854-3 0 9991 2 25544 51.6450 236.4268 0006349 16.6657 82.1014 15.54208663965733 CO-58 1 28895U 05043F 15281.46331053 .00000488 00000-0 10390-3 0 9992 2 28895 97.8220 103.3394 0015898 301.2061 58.7584 14.62917197530157 FALCON 1 30776U 07006E 15281.57813900 .00008173 00000-0 31372-3 0 9994 2 30776 35.4272 9.5554 0001628 199.5763 285.2900 15.25798476473625 MAST 1 31126U 07012K 15280.97087443 .00000407 00000-0 97814-4 0 9995 2 31126 097.9753 243.9697 0089738 304.7245 125.8655 14.56163437449846 CAPE1 1 31130U 07012P 15281.46984183 .00000608 00000-0 14142-3 0 9997 2 31130 97.9967 241.8467 0096402 323.6710 35.7969 14.55638180449368 COMPASS 1 32787U 08021E 15281.82954782 .00001586 00000-0 16508-3 0 9993 2 32787 97.6393 325.9642 0013912 41.2699 318.9569 14.91137339403441 AAUSAT2 1 32788U 08021F 15281.87650230 .00002502 00000-0 25046-3 0 9996 2 32788 97.6405 327.7196 0013228 38.2825 321.9331 14.92226752403559 DO-64 1 32789U 08021G 15281.82225237 .00004457 00000-0 35439-3 0 9995 2 32789 97.6526 340.3559 0010155 44.6002 19.0220 15.00899548404127 CO-66 1 32791U 08021J 15280.85743280 .00001264 00000-0 13944-3 0 9993 2 32791 97.6392 322.5243 0014949 50.9350 309.3195 14.89093039403081 RS-30 1 32953U 08025A 15281.88156169 .00000010 00000-0 -13620-7 0 9999 2 32953 82.4986 263.5304 0018126 188.6643 171.4128 12.43063970334737 METEOR-M 1 35865U 09049A 15281.66075156 -.00000002 00000-0 17910-4 0 9997 2 35865 98.4896 317.8749 0003304 130.3288 22.0167 14.22049574314337 RS-38 1 35869U 09049E 15281.85424237 .00000268 00000-0 13951-3 0 9993 2 35869 98.4800 317.6374 0005333 131.5986 228.5640 14.22312035314413 JUGNU 1 37839U 11058B 15281.18975140 .00000360 00000-0 49945-4 0 9991 2 37839 19.9610 237.4479 0018922 211.1288 281.5561 14.12492288206219 SRMSAT 1 37841U 11058D 15281.21545402 .00000352 00000-0 48632-4 0 9995 2 37841 19.9719 266.2994 0012027 132.9391 328.2276 14.10500281205929 RAX-2 1 37853U 11061D 15281.45284596 .00004595 00000-0 28093-3 0 9993 2 37853 101.6979 188.2049 0192735 104.0243 258.2473 14.97030654214045 AUBIESAT 1 37854U 11061E 15281.46209050 .00005037 00000-0 29815-3 0 9992 2 37854 101.6906 192.3236 0183822 98.3624 263.8471 14.99193791214184 HRBE 1 37855U 11061F 15280.89448664 .00005075 00000-0 29579-3 0 9994 2 37855 101.6935 189.7552 0196592 102.6577 259.6688 14.98009895214028 HORYU-2 1 38340U 12025D 15280.90520324 .00000865 00000-0 13806-3 0 9999 2 38340 98.3268 253.8363 0013246 96.6630 263.6086 14.74526621182147 RS-40 1 38735U 12041C 15281.72205298 .00000040 00000-0 21992-3 0 9996 2 38735 82.4800 349.1903 0015569 293.6629 66.2816 12.42570264145015 PROITERES 1 38756U 12047B 15281.82625758 -.00000003 00000-0 74804-5 0 9995 2 38756 98.2258 23.0751 0011047 297.9607 62.0474 14.75937329165764 BEESAT-3 1 39134U 13015E 15281.52701114 .00006179 00000-0 35367-3 0 9998 2 39134 64.8725 54.5804 0024637 237.8647 122.0086 15.13271152135847 BEESAT-2 1 39136U 13015G 15280.78546474 .00005034 00000-0 30510-3 0 9997 2 39136 64.8729 60.3252 0024934 236.6763 123.1973 15.11443066135672 ZACUBE-1 1 39417U 13066B 15281.86126898 .00000899 00000-0 12202-3 0 9991 2 39417 97.7180 340.0521 0061478 125.4875 235.2095 14.79933438101448 TRITON-1 1 39427U 13066M 15281.18135117 .00000732 00000-0 12680-3 0 9997 2 39427 97.7027 325.2206 0115925 165.6282 194.8268 14.66819145100422 DELFIN3XT 1 39428U 13066N 15281.75637216 .00001205 00000-0 20580-3 0 9992 2 39428 97.7039 323.8786 0124207 169.4086 190.9780 14.65673711100376 GOMX-1 1 39430U 13066Q 15281.09256216 -.00000014 00000-0 64607-5 0 9997 2 39430 97.6964 316.0035 0152924 193.5608 166.1416 14.58226705 99839 MO-76 1 39436U 13066W 15281.81101155 .00020651 00000-0 12493-2 0 9995 2 39436 97.7383 358.9012 0021375 78.8434 281.5197 15.10472144102627 LO-74 1 39440U 13066AA 15281.45120690 .00000852 00000-0 12781-3 0 9997 2 39440 97.7119 334.0313 0082812 140.9968 219.7254 14.74732282101025 PUCPSAT-1 1 39442U 13066AC 15281.20150151 .00001615 00000-0 17595-3 0 9993 2 39442 97.7292 348.5941 0034305 109.2041 251.2894 14.88937732100684 SPROUT 1 39770U 14029E 15281.39293035 .00001787 00000-0 22003-3 0 9996 2 39770 97.8728 16.6995 0009643 183.9913 176.1221 14.84174148 74420 POPSAT-HIP1 1 40028U 14033U 15281.89635950 .00002062 00000-0 23447-3 0 9990 2 40028 97.9438 182.3685 0014337 163.6064 196.5624 14.87284822 70683 EO-80 1 40032U 14033Y 15281.78175424 .00001090 00000-0 12793-3 0 9990 2 40032 97.9400 181.8177 0012539 159.1839 200.9890 14.86964594 70651 VELOX-1 1 40057U 14034E 15281.88962647 .00000786 00000-0 12159-3 0 9997 2 40057 98.2118 1.8375 0010502 230.4386 129.5874 14.76099664 68658 DAURIA DX 1 1 40071U 14037C 15281.87653866 -.00000044 00000-0 18118-5 0 9996 2 40071 98.3489 357.9259 0007694 230.1308 129.9189 14.80522397 67618 UKUBE-1 1 40074U 14037F 15281.83669048 .00001300 00000-0 16925-3 0 9991 2 40074 98.3518 359.0395 0003982 228.0416 132.0448 14.82462857 67675 HODOYOSHI-1 1 40299U 14070B 15281.87105545 .00002562 00000-0 12153-3 0 9998 2 40299 97.4506 1.9796 0015107 95.2662 40.1800 15.20083572 51083 CHUBUSAT-1 1 40300U 14070C 15281.88302201 .00002769 00000-0 13741-3 0 9993 2 40300 97.4473 0.9452 0023540 98.3512 35.8281 15.18300658 51027 QSAT-EOS 1 40301U 14070D 15281.87720666 .00005839 00000-0 28459-3 0 9995 2 40301 97.4434 0.1800 0032783 99.0249 6.2581 15.18237940 50980 TSUBAME 1 40302U 14070E 15281.86549183 .00003133 00000-0 17383-3 0 9997 2 40302 97.4399 358.2774 0043977 104.6247 347.7956 15.13659709 50868 FIREBIRD FU3 1 40377U 15003B 15281.81972376 .00006775 00000-0 33096-3 0 9999 2 40377 99.1073 336.3725 0153156 240.8295 117.7531 15.08923371 37679 FIREBIRD FU4 1 40378U 15003C 15281.81699377 .00006591 00000-0 32180-3 0 9996 2 40378 99.1073 336.3774 0153427 240.7896 117.7909 15.08924130 37674 GRIFEX 1 40379U 15003D 15281.78368234 .00005384 00000-0 26994-3 0 9993 2 40379 99.1076 336.1031 0155297 242.7203 115.8132 15.07963156 37658 LAMBDA-SAT 1 40458U 98067GB 15136.30676273 .20783109 12527-4 14817-2 0 9995 2 40458 051.6075 233.7697 0010355 318.5347 043.1720 16.39926603 21161 NO-84 1 40654U 15281.50909232 .00020865 00000-0 50628-3 0 01443 2 40654 054.9907 087.8780 0238276 166.9686 193.7865 15.16775022021359 NO-83 1 40655U 15281.11279594 .00027103 00000-0 63891-3 0 01530 2 40655 054.9911 088.9370 0233550 166.3711 194.3763 15.18168787021300 DEORBITSAIL 1 40719U 15032E 15281.15728230 .00001447 00000-0 22362-3 0 9991 2 40719 98.0412 169.7073 0016662 334.8340 25.2030 14.74766865 13185 NUDT-PHONESAT 1 40900U 15049B 15281.80529024 .00006453 00000-0 36392-3 0 9993 2 40900 97.4500 289.5508 0015183 205.9710 279.5316 15.13415684 2855 XW-2D 1 40907U 15049J 15281.88470110 .00002180 00000-0 12979-3 0 9997 2 40907 97.4532 289.6049 0015259 180.8027 296.3101 15.12162277 2859 XW-2F 1 40910U 15049M 15281.82163372 .00003602 00000-0 21264-3 0 9991 2 40910 97.4570 289.5479 0016697 179.6194 304.3281 15.12036282 2731 XW-2B 1 40911U 15049N 15281.88463319 .00002563 00000-0 15192-3 0 9990 2 40911 97.4571 289.6153 0014970 180.5138 297.0192 15.12178439 2756 DCBB 1 40912U 15049P 15281.86598531 .00005134 00000-0 28727-3 0 9999 2 40912 97.4568 289.6405 0016820 179.9337 301.2474 15.13774687 2751 TW-1C 1 40926U 15051B 15281.79999814 .00012527 00000-0 43240-3 0 9999 2 40926 97.3099 317.0803 0015663 227.1375 223.1958 15.29981732 2087 TW-1C 1 40928U 15051D 15281.79727275 .00005933 00000-0 20529-3 0 9999 2 40928 97.3036 317.0725 0013436 237.1991 211.3430 15.30172300 2083 OB A PSLV-C30 1 40930U 15052A 15277.24733457 .00004401 00000-0 53187-3 0 9992 2 40930 5.9928 346.7127 0010839 85.7248 274.4871 14.76106988 908 OB B PSLV-C30 1 40931U 15052B 15281.63743434 -.00000254 00000-0 -12527-3 0 9994 2 40931 5.9968 315.4385 0012673 150.3960 209.6818 14.76349511 1543 OB C PSLV-C30 1 40932U 15052C 15277.24541360 .00001988 00000-0 18824-3 0 9990 2 40932 6.0060 346.7683 0013227 88.0510 272.1803 14.76594028 892 OB D PSLV-C30 1 40933U 15052D 15277.24474746 -.00011638 00000-0 -17115-2 0 9990 2 40933 6.0046 346.7309 0013344 90.0826 270.1723 14.76745768 893 OB E PSLV-C30 1 40934U 15052E 15277.18033786 -.00007461 00000-0 -11487-2 0 9994 2 40934 6.0172 347.2033 0010316 81.4153 278.8059 14.75983170 850 OB F PSLV-C30 1 40935U 15052F 15277.24864649 .00001725 00000-0 15538-3 0 9999 2 40935 6.0046 346.8318 0010869 87.0476 273.0302 14.75784538 872 OB G PSLV-C30 1 40936U 15052G 15277.18126900 -.00005675 00000-0 -89993-3 0 9990 2 40936 6.0045 347.2563 0009716 81.8356 278.3117 14.75744131 874 OB A CZ-2D 1 40958U 15057A 15281.85116108 -.00000051 00000-0 00000 0 0 9997 2 40958 98.0420 354.7201 0017204 239.2333 120.7161 14.72708671 249 OB B CZ-2D 1 40959U 15057B 15281.85098393 -.00000051 00000-0 00000 0 0 9993 2 40959 98.0424 354.7228 0017172 242.0097 117.9348 14.72864908 258 OB C CZ-2D 1 40960U 15057C 15281.85086174 -.00000051 00000-0 00000 0 0 9999 2 40960 98.0425 354.7201 0017419 244.3661 115.5671 14.72971508 256 OB D CZ-2D 1 40961U 15057D 15281.85071559 -.00000051 00000-0 00000 0 0 9991 2 40961 98.0429 354.7206 0017644 245.6727 114.2604 14.73100678 258 AO-85 1 99992U 15281.53437500 .00015007 00000-0 15580-2 0 00009 2 99992 064.7657 291.6734 0216442 282.3705 182.7702 14.73904028000019 /EX